Flag for Belgium Weather past 2 weeks in Ghent, Belgium

Now
46 °F

Cool.


Feels Like: 46 °F
Forecast: 48 / 63 °F
Wind: 2 mph from North

Location: Munte


UV Index: 3 (Moderate)

Visibility: 11 mi


Pressure: 30.07 "Hg

Humidity: 73%

Dew point: 37 °F

Location of GhentLocation

Historic Weather in Ghent

°F

Ghent temperature yesterday

Maximum temperature yesterday: 52 °F (at 2:00 PM)
Minimum temperature yesterday: 44 °F (at 7:00 AM)
Average temperature yesterday: 48 °F

Past Weeks' High & Low Weather Summary

 TemperatureHumidityPressure
High70 °F (Apr 7, 3:00 PM)100% (Apr 11, 9:00 AM)30.44 "Hg (Apr 11, 9:00 AM)
Low35 °F (Apr 16, 7:00 AM)28% (Apr 17, 5:00 PM)29.69 "Hg (Apr 4, 1:00 AM)
Average52 °F71%30.11 "Hg
* Reported Apr 4 1:00 AM — Apr 19 1:00 AM, Ghent, Weather by CustomWeather, © 2014

Note: Actual official high and low records may vary slightly from our data, if they occured in-between our weather recording intervals... More about our weather records

Advertising

Historic Weather Conditions — Data for Previous 24 hours

 ConditionsComfort  
Time TempWeatherWind HumidityBarometerVisibility
1:00 AM
Apr 19
46 °FCool.2 mph73%30.07 "Hg11 mi
12:00 AM46 °FCool.3 mph70%30.08 "Hg12 mi
10:00 PM
Apr 18
45 °FQuite cool.3 mph72%30.08 "Hg12 mi
9:00 PM47 °FCool.5 mph68%30.08 "Hg15 mi
8:00 PM49 °FCool.6 mph69%30.07 "Hg14 mi
7:00 PM49 °FCool.6 mph68%30.07 "Hg22 mi
6:00 PM49 °FLight rain. Cloudy.6 mph74%30.07 "Hg8 mi
5:00 PM51 °FScattered clouds.6 mph64%30.08 "Hg19 mi
4:00 PM50 °FPartly sunny.8 mph63%30.08 "Hg16 mi
3:00 PM52 °FPartly sunny.8 mph54%30.08 "Hg16 mi
2:00 PM52 °FPartly sunny.6 mph57%30.07 "Hg14 mi
1:00 PM50 °FPartly sunny.8 mph59%30.07 "Hg16 mi
12:00 PM51 °FPartly sunny.6 mph62%30.07 "Hg19 mi
11:00 AM47 °FPartly sunny.5 mph71%30.07 "Hg16 mi
10:00 AM50 °FPartly sunny.7 mph66%30.06 "Hg12 mi
9:00 AM48 °FPartly sunny.3 mph77%30.05 "Hg14 mi
8:00 AM45 °FPassing clouds.2 mph84%30.03 "Hg11 mi
7:00 AM44 °FScattered clouds.2 mph86%30.02 "Hg9 mi
6:00 AM45 °FPassing clouds.3 mph85%30.02 "Hg11 mi
5:00 AM46 °FCool.2 mph89%30.00 "Hg7 mi
4:00 AM47 °FCool.2 mph87%29.99 "Hg7 mi
3:00 AM50 °FCool.3 mph86%29.99 "Hg7 mi
2:00 AM48 °FCool.3 mph94%30.01 "Hg5 mi
Weather by CustomWeather, © 2014

See weather overview